Hagerstown, MD

8:41 PM EST on December 07, 2016 (GMT -0500)
Hagerstown Regional-Henson

Weather History for KHGR - November, 2012

Change the Weather History Date:

Sunday, November 4, 2012

  Actual Average Record
Temperature  
Mean Temperature 43 °F 49 °F  
Max Temperature 48 °F 59 °F 79 °F (2003)
Min Temperature 37 °F 39 °F 21 °F (2006)
Degree Days  
Heating Degree Days 22 16  
Month to date heating degree days 85 62  
Since 1 July heating degree days 412 464  
Cooling Degree Days 0 0  
Month to date cooling degree days 0 0  
Year to date cooling degree days 1276 969  
Moisture  
Dew Point 28 °F    
Average Humidity 58    
Maximum Humidity 70    
Minimum Humidity 46    
Precipitation  
Precipitation 0.00 in 0.10 in 0.92 in (2010)
Month to date precipitation T 0.40  
Year to date precipitation 34.40 33.58  
Sea Level Pressure  
Sea Level Pressure 30.09 in    
Wind  
Wind Speed 7 mph (NW)    
Max Wind Speed 16 mph    
Max Gust Speed 20 mph    
Visibility 10 miles    
Events      
T = Trace of Precipitation, MM = Missing Value Source: NWS Daily Summary

Daily Weather History Graph

Daily Weather History Graph

Search for Another Location

Airport or City:

Trip Planner

Search our weather history database for the weather conditions in past years. The results will help you decide how hot, cold, wet, or windy it might be!

Date:

Astronomy

Nov. 04, 2012 Rise Set
Actual Time 6:43 AM EST 5:05 PM EST
Civil Twilight 6:15 AM EST 5:33 PM EST
Nautical Twilight 5:43 AM EST 6:05 PM EST
Astronomical Twilight 5:11 AM EST 6:36 PM EST
Moon 9:41 PM EST (11/4) 11:25 AM EST (11/4)
Length of Visible Light 11h 18m
Length of Day
10h 21m
Waning Gibbous, 72% of the Moon is Illuminated
Nov 4
Waning Gibbous
Nov 6
Last Quarter
Nov 13
New
Nov 20
First Quarter
Nov 28
Full

Hourly Weather History & Observations

Time (EST) Temp. Windchill Dew Point Humidity Pressure Visibility Wind Dir Wind Speed Gust Speed Precip Events Conditions
12:53 AM 39.0 °F 32.8 °F 26.1 °F 60% 30.12 in 10.0 mi NW 9.2 mph - N/A   Mostly Cloudy
1:53 AM 37.0 °F - 28.0 °F 70% 30.11 in 10.0 mi Calm Calm - N/A   Overcast
1:53 AM 37.9 °F - 28.0 °F 68% 30.11 in 10.0 mi Calm Calm - N/A   Overcast
2:53 AM 37.9 °F 35.5 °F 28.0 °F 68% 30.09 in 10.0 mi NW 3.5 mph - N/A   Overcast
3:53 AM 37.0 °F 33.3 °F 28.9 °F 73% 30.09 in 10.0 mi WNW 4.6 mph - N/A   Overcast
4:53 AM 37.9 °F 34.4 °F 28.9 °F 70% 30.10 in 10.0 mi NW 4.6 mph - N/A   Mostly Cloudy
5:53 AM 37.9 °F 35.5 °F 28.9 °F 70% 30.10 in 10.0 mi NW 3.5 mph - N/A   Overcast
6:53 AM 39.0 °F - 28.9 °F 67% 30.11 in 10.0 mi Calm Calm - N/A   Overcast
7:53 AM 39.9 °F 33.9 °F 28.0 °F 63% 30.11 in 10.0 mi NNW 9.2 mph - N/A   Overcast
8:53 AM 39.9 °F 35.1 °F 27.0 °F 60% 30.12 in 10.0 mi NNW 6.9 mph - N/A   Overcast
9:53 AM 42.1 °F 36.1 °F 28.0 °F 58% 30.11 in 10.0 mi NW 10.4 mph - N/A   Overcast
10:53 AM 43.0 °F 38.2 °F 28.0 °F 56% 30.11 in 10.0 mi NW 8.1 mph - N/A   Partly Cloudy
11:53 AM 46.0 °F 40.6 °F 28.0 °F 50% 30.08 in 10.0 mi NW 11.5 mph - N/A   Partly Cloudy
12:53 PM 46.0 °F 40.2 °F 28.0 °F 50% 30.07 in 10.0 mi NW 12.7 mph - N/A   Scattered Clouds
1:53 PM 48.0 °F - 28.0 °F 46% 30.06 in 10.0 mi North 10.4 mph - N/A   Clear
2:53 PM 46.9 °F - 28.0 °F 48% 30.05 in 10.0 mi NW 11.5 mph - N/A   Partly Cloudy
3:53 PM 45.0 °F 39.7 °F 28.0 °F 52% 30.06 in 10.0 mi North 10.4 mph - N/A   Clear
4:53 PM 41.0 °F 33.9 °F 27.0 °F 57% 30.07 in 10.0 mi NNW 12.7 mph - N/A   Clear
5:53 PM 41.0 °F 34.7 °F 27.0 °F 57% 30.09 in 10.0 mi NNW 10.4 mph - N/A   Mostly Cloudy
6:53 PM 41.0 °F 35.8 °F 28.0 °F 60% 30.10 in 10.0 mi NNW 8.1 mph - N/A   Overcast
7:53 PM 39.9 °F 33.9 °F 28.9 °F 65% 30.10 in 10.0 mi NW 9.2 mph - N/A   Overcast
8:53 PM 39.9 °F 33.4 °F 28.0 °F 63% 30.10 in 10.0 mi NW 10.4 mph - N/A   Overcast
9:53 PM 39.9 °F 32.9 °F 28.0 °F 63% 30.10 in 10.0 mi NW 11.5 mph 17.3 mph N/A   Overcast
10:53 PM 39.0 °F 32.8 °F 28.0 °F 65% 30.10 in 10.0 mi NW 9.2 mph - N/A   Overcast